Location: Penton Mewsey
(51.2167°N, 1.5167°W)
Time: 22:34:17
(UTC+00:00)

Envisat - Pass Details

Date: 12 March 2021
Orbit: 764 x 766 km, 98.1° (Epoch: 22 April)

Event Time Altitude Azimuth Distance (km) Brightness Sun altitude
Rises 04:23:07 0° 28° (NNE) 3,246 7.0 -19.8°
Reaches altitude 10° 04:26:27 10° 51° (NE) 2,313 6.5 -19.4°
Maximum altitude 04:29:24 15° 86° (E) 1,960 6.1 -18.9°
Drops below altitude 10° 04:32:20 10° 122° (ESE) 2,302 6.0 -18.5°
Sets 04:35:37 0° 145° (SE) 3,221 6.5 -18.0°
